• In Kazakhstan
  • List of Countries
  • For 7 days
  • Water Temperature
  • Weather Map
  • News
  • Weather Widgets
  • user-avatar
    Login

    Hourly Weather Odense

    Today, 28 February, Friday

    Time Temperature Precipitation Wind Pressure Humidity
    00:00 -1°C° 0 mm 4 mps 748 mmHg 90%
    01:00 -1°C° 0 mm 5 mps 749 mmHg 92%
    02:00 0°C° 0 mm 5 mps 749 mmHg 92%
    03:00 0°C° 0 mm 5 mps 749 mmHg 92%
    04:00 0°C° 0 mm 5 mps 750 mmHg 91%
    05:00 0°C° 0 mm 5 mps 750 mmHg 90%
    06:00 -1°C° 0 mm 6 mps 751 mmHg 88%
    07:00 -1°C° 0 mm 7 mps 751 mmHg 87%
    08:00 0°C° 0 mm 7 mps 751 mmHg 82%
    09:00 +2°C° 0 mm 7 mps 752 mmHg 77%
    10:00 +2°C° 0 mm 8 mps 752 mmHg 72%
    11:00 +4°C° 0 mm 8 mps 753 mmHg 69%
    12:00 +4°C° 0 mm 8 mps 754 mmHg 67%
    13:00 +5°C° 0 mm 8 mps 754 mmHg 64%
    14:00 +5°C° 0 mm 7 mps 754 mmHg 66%
    15:00 +4°C° 0 mm 7 mps 754 mmHg 69%
    16:00 +4°C° 0 mm 6 mps 755 mmHg 71%
    17:00 +3°C° 0 mm 6 mps 754 mmHg 77%
    18:00 +2°C° 0 mm 5 mps 754 mmHg 82%
    19:00 +1°C° 0 mm 4 mps 754 mmHg 88%
    20:00 +1°C° 0 mm 5 mps 754 mmHg 87%
    21:00 +1°C° 0 mm 5 mps 753 mmHg 87%
    22:00 +1°C° 0 mm 5 mps 753 mmHg 87%
    23:00 +1°C° 0 mm 6 mps 752 mmHg 85%

    Tomorrow, 29 February, Saturday

    Time Temperature Precipitation Wind Pressure Humidity
    00:00 0°C° 0 mm 7 mps 751 mmHg 84%
    01:00 0°C° 0 mm 7 mps 750 mmHg 83%
    02:00 0°C° 0.4 mm 9 mps 749 mmHg 87%
    03:00 -2°C° 0.4 mm 10 mps 747 mmHg 91%
    04:00 -2°C° 0.4 mm 11 mps 746 mmHg 96%
    05:00 -1°C° 0.8 mm 11 mps 745 mmHg 95%
    06:00 0°C° 0.8 mm 10 mps 744 mmHg 95%
    07:00 +1°C° 0.8 mm 9 mps 743 mmHg 94%
    08:00 +2°C° 1.3 mm 9 mps 742 mmHg 94%
    09:00 +3°C° 1.3 mm 9 mps 741 mmHg 94%
    10:00 +5°C° 1.3 mm 8 mps 741 mmHg 94%
    11:00 +5°C° 0.1 mm 8 mps 740 mmHg 92%
    12:00 +6°C° 0.1 mm 8 mps 740 mmHg 89%
    13:00 +6°C° 0.1 mm 8 mps 740 mmHg 86%
    14:00 +6°C° 0 mm 8 mps 739 mmHg 84%
    15:00 +7°C° 0 mm 8 mps 738 mmHg 82%
    16:00 +7°C° 0 mm 8 mps 737 mmHg 80%
    17:00 +7°C° 0.4 mm 9 mps 737 mmHg 82%
    18:00 +7°C° 0.4 mm 10 mps 736 mmHg 84%
    19:00 +6°C° 0.4 mm 11 mps 736 mmHg 87%
    20:00 +4°C° 0.7 mm 11 mps 736 mmHg 82%
    21:00 +2°C° 0.7 mm 10 mps 737 mmHg 78%
    22:00 +1°C° 0.7 mm 9 mps 738 mmHg 74%
    23:00 +1°C° 0 mm 9 mps 739 mmHg 75%

    Day after tomorrow, 1 March, Sunday

    Time Temperature Precipitation Wind Pressure Humidity
    00:00 +1°C° 0 mm 9 mps 739 mmHg 76%
    01:00 +1°C° 0 mm 9 mps 740 mmHg 77%
    02:00 0°C° 0 mm 9 mps 740 mmHg 78%
    03:00 0°C° 0 mm 10 mps 740 mmHg 78%
    04:00 0°C° 0 mm 10 mps 740 mmHg 79%
    05:00 0°C° 0 mm 10 mps 740 mmHg 81%
    06:00 0°C° 0 mm 10 mps 740 mmHg 82%
    07:00 0°C° 0 mm 10 mps 740 mmHg 84%
    08:00 0°C° 0 mm 10 mps 740 mmHg 81%
    09:00 +1°C° 0 mm 10 mps 740 mmHg 78%
    10:00 +1°C° 0 mm 10 mps 740 mmHg 76%
    11:00 +2°C° 0.1 mm 11 mps 741 mmHg 75%
    12:00 +2°C° 0.1 mm 11 mps 741 mmHg 75%
    13:00 +2°C° 0.1 mm 11 mps 741 mmHg 75%
    14:00 +2°C° 0.4 mm 10 mps 741 mmHg 73%
    15:00 +2°C° 0.4 mm 10 mps 741 mmHg 72%
    16:00 +3°C° 0.4 mm 10 mps 741 mmHg 70%
    17:00 +2°C° 0.2 mm 10 mps 741 mmHg 76%
    18:00 +1°C° 0.2 mm 9 mps 741 mmHg 81%
    19:00 +1°C° 0.2 mm 9 mps 742 mmHg 86%
    20:00 +1°C° 0.5 mm 8 mps 741 mmHg 87%
    21:00 +1°C° 0.5 mm 8 mps 741 mmHg 88%
    22:00 +2°C° 0.5 mm 7 mps 741 mmHg 90%
    23:00 +2°C° 0.2 mm 7 mps 741 mmHg 90%

    2 March, Monday

    Time Temperature Precipitation Wind Pressure Humidity
    00:00 +1°C° 0.2 mm 6 mps 741 mmHg 90%
    01:00 +1°C° 0.2 mm 6 mps 741 mmHg 90%
    02:00 +1°C° 0 mm 5 mps 741 mmHg 91%
    03:00 +1°C° 0 mm 5 mps 741 mmHg 93%
    04:00 +1°C° 0 mm 4 mps 741 mmHg 94%
    05:00 +1°C° 0.1 mm 4 mps 741 mmHg 95%
    06:00 +1°C° 0.1 mm 4 mps 740 mmHg 95%
    07:00 +1°C° 0.1 mm 4 mps 740 mmHg 95%
    08:00 +2°C° 0.1 mm 3 mps 740 mmHg 94%
    09:00 +3°C° 0.1 mm 3 mps 740 mmHg 92%
    10:00 +4°C° 0.1 mm 2 mps 740 mmHg 90%
    11:00 +5°C° 0 mm 2 mps 740 mmHg 85%
    12:00 +5°C° 0 mm 2 mps 741 mmHg 80%
    13:00 +6°C° 0 mm 2 mps 741 mmHg 75%
    14:00 +6°C° 0 mm 2 mps 741 mmHg 73%
    15:00 +7°C° 0 mm 2 mps 741 mmHg 70%
    16:00 +7°C° 0 mm 2 mps 741 mmHg 68%
    17:00 +6°C° 0 mm 2 mps 741 mmHg 74%
    18:00 +5°C° 0 mm 2 mps 742 mmHg 79%
    19:00 +4°C° 0 mm 2 mps 742 mmHg 84%
    20:00 +4°C° 0 mm 2 mps 742 mmHg 85%
    21:00 +4°C° 0 mm 2 mps 743 mmHg 86%
    22:00 +4°C° 0 mm 2 mps 743 mmHg 87%
    23:00 +4°C° 0 mm 2 mps 743 mmHg 88%

    3 March, Tuesday

    Time Temperature Precipitation Wind Pressure Humidity
    00:00 +4°C° 0 mm 2 mps 743 mmHg 88%
    01:00 +4°C° 0 mm 2 mps 744 mmHg 89%
    02:00 +3°C° 0.1 mm 2 mps 744 mmHg 91%
    03:00 +3°C° 0.1 mm 2 mps 744 mmHg 92%
    04:00 +4°C° 0.1 mm 1 mps 744 mmHg 94%
    05:00 +4°C° 0.1 mm 1 mps 745 mmHg 94%
    06:00 +3°C° 0.1 mm 2 mps 745 mmHg 94%
    07:00 +3°C° 0.1 mm 2 mps 746 mmHg 94%
    08:00 +4°C° 0.1 mm 2 mps 746 mmHg 91%
    09:00 +4°C° 0.1 mm 2 mps 747 mmHg 87%
    10:00 +5°C° 0.1 mm 2 mps 747 mmHg 84%
    11:00 +5°C° 0.1 mm 2 mps 748 mmHg 83%
    12:00 +5°C° 0.1 mm 2 mps 748 mmHg 83%
    13:00 +5°C° 0.1 mm 2 mps 748 mmHg 82%
    14:00 +5°C° 0.2 mm 2 mps 749 mmHg 86%
    15:00 +4°C° 0.2 mm 2 mps 749 mmHg 89%
    16:00 +4°C° 0.2 mm 2 mps 749 mmHg 92%
    17:00 +5°C° 0.2 mm 1 mps 749 mmHg 93%
    18:00 +4°C° 0.2 mm 1 mps 749 mmHg 93%
    19:00 +4°C° 0.2 mm 1 mps 750 mmHg 93%
    20:00 +4°C° 0 mm 1 mps 750 mmHg 94%
    21:00 +3°C° 0 mm 1 mps 750 mmHg 94%
    22:00 +3°C° 0 mm 1 mps 750 mmHg 94%
    23:00 +2°C° 0 mm 2 mps 750 mmHg 95%

    4 March, Wednesday

    Time Temperature Precipitation Wind Pressure Humidity
    00:00 +2°C° 0 mm 2 mps 750 mmHg 95%
    01:00 +2°C° 0 mm 2 mps 750 mmHg 95%
    02:00 +2°C° 0.1 mm 2 mps 750 mmHg 95%
    03:00 +2°C° 0.1 mm 2 mps 750 mmHg 96%
    04:00 +2°C° 0.1 mm 3 mps 750 mmHg 96%
    05:00 +2°C° 0.3 mm 3 mps 750 mmHg 95%
    06:00 +3°C° 0.3 mm 2 mps 750 mmHg 95%
    07:00 +3°C° 0.3 mm 2 mps 750 mmHg 95%
    08:00 +3°C° 0.1 mm 2 mps 751 mmHg 93%
    09:00 +2°C° 0.1 mm 3 mps 751 mmHg 92%
    10:00 +3°C° 0.1 mm 3 mps 751 mmHg 91%
    11:00 +3°C° 0.1 mm 3 mps 751 mmHg 91%
    12:00 +4°C° 0.1 mm 2 mps 751 mmHg 92%
    13:00 +4°C° 0.1 mm 2 mps 751 mmHg 92%
    14:00 +4°C° 0.1 mm 2 mps 751 mmHg 92%
    15:00 +4°C° 0.1 mm 2 mps 751 mmHg 91%
    16:00 +4°C° 0.1 mm 2 mps 751 mmHg 91%
    17:00 +4°C° 0.1 mm 2 mps 751 mmHg 92%
    18:00 +4°C° 0.1 mm 1 mps 751 mmHg 93%
    19:00 +4°C° 0.1 mm 1 mps 751 mmHg 94%
    20:00 +4°C° 0.2 mm 1 mps 751 mmHg 95%
    21:00 +4°C° 0.2 mm 1 mps 751 mmHg 95%
    22:00 +4°C° 0.2 mm 1 mps 751 mmHg 95%
    23:00 +4°C° 0.1 mm 1 mps 751 mmHg 95%
    Show more